Facebook Twitter

Wetterstation Zamora

aktuelles Wetter
  Temperatur Wetter Niederschlag Luftdruck Wind
Mi, 21:00 Uhr 25° - 0 mm 1013.1 hPa 5 km/h W
Mi, 20:00 Uhr 26° - 0.1 mm 1012.8 hPa 8 km/h NW
Mi, 19:00 Uhr 27° - 0 mm 1012.4 hPa 5 km/h W
Mi, 18:00 Uhr 28° - 0 mm 1012.2 hPa 9 km/h W
Mi, 17:00 Uhr 28° - 0.1 mm 1012.1 hPa 5 km/h W
Mi, 16:00 Uhr 29° - 0 mm 1011.9 hPa 9 km/h W
Mi, 15:00 Uhr 29° - 0 mm 1012.8 hPa 9 km/h SW
Mi, 14:00 Uhr 28° - 0.1 mm 1013.5 hPa 11 km/h SW
Mi, 13:00 Uhr 27° - 0.1 mm 1014.2 hPa 4 km/h NO
Mi, 12:00 Uhr 24° - 0 mm 1015.3 hPa 5 km/h SO
Mi, 11:00 Uhr 21° - 0 mm 1016.6 hPa 4 km/h O
Mi, 10:00 Uhr 18° - 0 mm 1017.7 hPa 8 km/h O
Mi, 09:00 Uhr 16° - 0 mm 1018.3 hPa 5 km/h O
Mi, 08:00 Uhr 13° - 0 mm 1018.9 hPa 2 km/h N
Mi, 07:00 Uhr 13° - 0 mm 1018.8 hPa 4 km/h NW
Mi, 06:00 Uhr 14° - 0 mm 1018.5 hPa 4 km/h NO
Mi, 05:00 Uhr 14° - 0 mm 1018.7 hPa 4 km/h NW
Mi, 04:00 Uhr 15° - 0 mm 1018.8 hPa 2 km/h N
Mi, 03:00 Uhr 16° - 0 mm 1018.9 hPa 2 km/h NO
Mi, 02:00 Uhr 17° - 0 mm 1018.9 hPa 4 km/h W

Alle Zeitangaben MESZ